User: anonymous   Login
Location: Kailua
(21.4020°N, 157.7390°W)
Time: 11:15:45
(UTC-10:00)
Language:

Cosmos 2221 Rocket - Orbit

View from above orbital plane
View from above orbital plane
View from above satellite
View from above satellite

Ground track
Ground track

The orbit data is extracted from the following two-line orbital elements,

1 22237U 92080B   16343.87356046  .00000142  00000-0  16266-4 0  9993
2 22237  82.5119 294.7462 0021243 106.5677 307.7472 14.78294929295328
Epoch (UTC): 08 December 2016 20:57:55
Eccentricity: 0.0021243
inclination: 82.5119°
perigee height: 620 km
apogee height: 649 km
right ascension of ascending node: 294.7462°
argument of perigee: 106.5677°
revolutions per day: 14.78294929
mean anomaly at epoch: 307.7472°
orbit number at epoch: 29532

The dashed part of the orbit path shows where the satellite is in the earth's shadow,  

DLR